Flag for Micronesia Weather past 2 weeks in Kolonia, Pohnpei, Micronesia

Now
77 °F

Mostly cloudy.


Feels Like: 79 °F
Forecast: 79 / 87 °F
Wind: 3 mph from Southeast

Location: Pohnpei

Current Time: Jul 7, 2015 at 10:24:05 PM

Latest Report: Jul 7, 2015 at 9:53 PM


Visibility: 15 mi

Pressure: 29.88 "Hg

Humidity: 94%

Dew point: 75 °F

Location of KoloniaLocation

Historic Weather in Kolonia — Graph

°F

Kolonia temperature yesterday

Maximum temperature yesterday: 86 °F (at 9:50 AM)
Minimum temperature yesterday: 80 °F (at 9:56 PM)
Average temperature yesterday: 82 °F

Past Weeks' High & Low Weather Summary

 TemperatureHumidityPressure
High89 °F (Jul 7, 9:53 AM)99% (Jun 29, 11:58 AM)29.90 "Hg (Jun 29, 11:58 AM)
Low73 °F (Jul 4, 5:52 AM)67% (Jul 7, 9:53 AM)29.71 "Hg (Jul 1, 3:50 PM)
Average80 °F88%29.81 "Hg
* Reported Jun 22 8:51 PM — Jul 7 8:52 PM, Kolonia, Weather by CustomWeather, © 2015

Note: Actual official high and low records may vary slightly from our data, if they occured in-between our weather recording intervals... More about our weather records

Advertising

Kolonia weather history for previous 24 hours

 ConditionsComfort  
Time TempWeatherWind HumidityBarometerVisibility
8:52 PM
Tue, Jul 7
78 °FMostly cloudy.5 mph91%29.87 "Hg15 mi
7:54 PM80 °FOvercast.6 mph88%29.85 "Hg15 mi
5:50 PM83 °FMore clouds than sun.6 mph84%29.83 "Hg15 mi
4:57 PM84 °FMore clouds than sun.6 mph81%29.81 "Hg15 mi
3:54 PM86 °FMore clouds than sun.8 mph72%29.80 "Hg15 mi
2:50 PM84 °FCloudy.7 mph82%29.80 "Hg15 mi
1:53 PM82 °FSprinkles. Mostly cloudy.5 mph88%29.82 "Hg12 mi
12:53 PM84 °FMostly cloudy.3 mph82%29.82 "Hg15 mi
11:50 AM84 °FCloudy.6 mph82%29.83 "Hg15 mi
10:54 AM86 °FCloudy.9 mph78%29.84 "Hg15 mi
9:53 AM89 °FMostly cloudy.6 mph67%29.83 "Hg15 mi
8:51 AM81 °FSprinkles. Mostly cloudy.5 mph88%29.84 "Hg12 mi
7:51 AM81 °FMostly cloudy.3 mph87%29.83 "Hg15 mi
6:51 AM82 °FCloudy.3 mph82%29.82 "Hg15 mi
5:50 AM81 °FMostly cloudy.3 mph85%29.79 "Hg15 mi
4:52 AM81 °FMostly cloudy.3 mph82%29.78 "Hg15 mi
3:50 AM81 °FOvercast.5 mph83%29.77 "Hg15 mi
2:50 AM82 °FOvercast.5 mph82%29.77 "Hg15 mi
1:51 AM82 °FOvercast.3 mph82%29.78 "Hg15 mi
12:51 AM82 °FOvercast.3 mph84%29.80 "Hg15 mi
11:56 PM
Mon, Jul 6
82 °FOvercast.5 mph84%29.80 "Hg15 mi
10:53 PM80 °FOvercast.6 mph89%29.82 "Hg15 mi
Weather by CustomWeather, © 2015

See weather overviewHow to use our weather pages